Voltar ao catálogo

COSMOS 2499 DEB

AtivoPO
NORAD 49940·DEBRIS·🇷🇺 Russia

Lançado May 23, 2014 de Plesetsk Cosmodrome

Loading…

Próximas Passagens (próximas 24 horas)

TLE

EnvelhecendoSource: Space-Track

Época: Sep 9, 2026, 00:54 UTC

1 49940U 14028X   26252.03803708  .00003432  00000-0  78940-2 0  9999
2 49940  82.4664 164.9583 0339968  24.9757 336.7383 13.06013812229951

Acompanhe COSMOS 2499 DEB em tempo real com AllMySat

Download on the App Store